Time,TemperatureF,DewpointF,PressureIn,WindDirection,WindDirectionDegrees,WindSpeedMPH,WindSpeedGustMPH,Humidity,HourlyPrecipIn,Conditions,Clouds,dailyrainin,SoftwareType,DateUTC
2013-08-29 00:10:00,61.5,48.4,29.80,NE,51,0.0,0.0,62,0.00,,,0.00,meteobridge,2013-08-29 07:10:00,
2013-08-29 00:25:00,61.2,49.6,29.81,NE,51,0.0,0.9,66,0.00,,,0.00,meteobridge,2013-08-29 07:25:00,
2013-08-29 00:40:00,63.3,51.8,29.81,East,82,0.0,0.9,66,0.00,,,0.00,meteobridge,2013-08-29 07:40:00,
2013-08-29 00:55:00,62.6,51.4,29.81,North,8,0.9,0.9,67,0.00,,,0.00,meteobridge,2013-08-29 07:55:00,
2013-08-29 01:10:00,61.2,49.3,29.81,NNE,14,0.0,0.0,65,0.00,,,0.00,meteobridge,2013-08-29 08:10:00,
2013-08-29 01:25:00,58.8,49.1,29.81,NNE,14,0.0,0.0,70,0.00,,,0.00,meteobridge,2013-08-29 08:25:00,
2013-08-29 01:41:00,57.7,49.1,29.80,NNE,14,0.0,0.0,73,0.00,,,0.00,meteobridge,2013-08-29 08:41:00,
2013-08-29 01:56:00,57.2,48.9,29.80,NNE,14,0.0,0.0,74,0.00,,,0.00,meteobridge,2013-08-29 08:56:00,
2013-08-29 02:11:00,56.7,49.1,29.80,NNE,14,0.0,0.0,76,0.00,,,0.00,meteobridge,2013-08-29 09:11:00,
2013-08-29 02:26:00,56.3,48.9,29.80,NNE,14,0.0,0.0,76,0.00,,,0.00,meteobridge,2013-08-29 09:26:00,
2013-08-29 02:41:00,55.8,48.4,29.80,NNE,14,0.0,0.0,76,0.00,,,0.00,meteobridge,2013-08-29 09:41:00,
2013-08-29 02:56:00,55.2,48.7,29.80,NNE,14,0.0,0.0,79,0.00,,,0.00,meteobridge,2013-08-29 09:56:00,
2013-08-29 03:11:00,55.0,48.9,29.80,NNE,14,0.0,0.0,80,0.00,,,0.00,meteobridge,2013-08-29 10:11:00,
2013-08-29 03:26:00,55.9,49.8,29.80,East,81,0.0,0.9,80,0.00,,,0.00,meteobridge,2013-08-29 10:26:00,
2013-08-29 03:42:00,57.0,50.2,29.79,ENE,71,0.0,0.0,78,0.00,,,0.00,meteobridge,2013-08-29 10:42:00,
2013-08-29 03:57:00,56.7,49.8,29.79,ENE,71,0.0,0.0,78,0.00,,,0.00,meteobridge,2013-08-29 10:57:00,
2013-08-29 04:12:00,55.9,49.5,29.80,ENE,71,0.0,0.0,79,0.00,,,0.00,meteobridge,2013-08-29 11:12:00,
2013-08-29 04:27:00,55.8,50.0,29.79,ENE,71,0.0,0.0,81,0.00,,,0.00,meteobridge,2013-08-29 11:27:00,
2013-08-29 04:42:00,55.2,49.8,29.79,ENE,71,0.0,0.0,82,0.00,,,0.00,meteobridge,2013-08-29 11:42:00,
2013-08-29 04:57:00,55.9,50.5,29.79,ENE,71,0.0,0.0,82,0.00,,,0.00,meteobridge,2013-08-29 11:57:00,
2013-08-29 05:13:00,55.9,50.5,29.79,ENE,72,0.0,0.0,82,0.00,,,0.00,meteobridge,2013-08-29 12:13:00,
2013-08-29 05:28:00,56.1,50.7,29.79,ENE,71,0.0,0.0,82,0.00,,,0.00,meteobridge,2013-08-29 12:28:00,
2013-08-29 05:43:00,55.6,50.9,29.79,ENE,71,0.0,0.0,84,0.00,,,0.00,meteobridge,2013-08-29 12:43:00,
2013-08-29 05:58:00,56.3,51.3,29.79,ENE,71,0.0,0.0,83,0.00,,,0.00,meteobridge,2013-08-29 12:58:00,
2013-08-29 06:13:00,56.1,51.1,29.79,ENE,71,0.0,0.0,83,0.00,,,0.00,meteobridge,2013-08-29 13:13:00,
2013-08-29 06:28:00,56.1,51.4,29.80,ENE,71,0.0,0.0,84,0.00,,,0.00,meteobridge,2013-08-29 13:28:00,
2013-08-29 06:43:00,56.7,51.6,29.80,ENE,72,0.0,0.0,83,0.00,,,0.00,meteobridge,2013-08-29 13:43:00,
2013-08-29 06:58:00,57.4,52.0,29.80,ENE,71,0.0,0.0,82,0.00,,,0.00,meteobridge,2013-08-29 13:58:00,
2013-08-29 07:14:00,58.8,53.1,29.80,ENE,71,0.0,0.0,81,0.00,,,0.00,meteobridge,2013-08-29 14:14:00,
2013-08-29 07:29:00,59.2,53.1,29.81,ENE,71,0.0,0.0,80,0.00,,,0.00,meteobridge,2013-08-29 14:29:00,
2013-08-29 07:44:00,60.1,54.0,29.81,ENE,71,0.0,0.0,80,0.00,,,0.00,meteobridge,2013-08-29 14:44:00,
2013-08-29 07:59:00,61.5,55.2,29.81,ENE,71,0.0,0.0,80,0.00,,,0.00,meteobridge,2013-08-29 14:59:00,
2013-08-29 08:14:00,63.1,56.5,29.81,ENE,71,0.0,0.0,79,0.00,,,0.00,meteobridge,2013-08-29 15:14:00,
2013-08-29 08:29:00,64.2,56.5,29.80,ENE,71,0.0,0.0,76,0.00,,,0.00,meteobridge,2013-08-29 15:29:00,
2013-08-29 08:44:00,65.7,55.9,29.81,East,94,0.0,0.0,71,0.00,,,0.00,meteobridge,2013-08-29 15:44:00,
2013-08-29 08:59:00,66.6,56.1,29.81,ENE,59,0.9,2.0,69,0.00,,,0.00,meteobridge,2013-08-29 15:59:00,
2013-08-29 09:14:00,67.1,56.7,29.81,East,101,0.0,0.0,69,0.00,,,0.00,meteobridge,2013-08-29 16:14:00,
2013-08-29 09:29:00,68.4,56.5,29.81,ESE,103,0.0,0.9,66,0.00,,,0.00,meteobridge,2013-08-29 16:29:00,
2013-08-29 09:44:00,69.3,56.5,29.81,East,93,2.0,2.0,64,0.00,,,0.00,meteobridge,2013-08-29 16:44:00,
2013-08-29 09:59:00,70.3,56.3,29.80,East,91,0.0,0.9,61,0.00,,,0.00,meteobridge,2013-08-29 16:59:00,
2013-08-29 10:14:00,71.1,55.9,29.81,East,80,0.0,4.0,59,0.00,,,0.00,meteobridge,2013-08-29 17:14:00,
2013-08-29 10:30:00,71.8,56.7,29.80,ESE,108,0.0,0.9,59,0.00,,,0.00,meteobridge,2013-08-29 17:30:00,
2013-08-29 10:45:00,72.1,57.0,29.82,ENE,67,0.0,0.0,59,0.00,,,0.00,meteobridge,2013-08-29 17:45:00,
2013-08-29 11:00:00,72.3,57.7,29.83,ENE,67,0.0,0.0,60,0.00,,,0.00,meteobridge,2013-08-29 18:00:00,
2013-08-29 11:15:00,71.4,56.8,29.82,ENE,73,0.0,2.0,60,0.00,,,0.00,meteobridge,2013-08-29 18:15:00,
2013-08-29 11:30:00,70.9,57.7,29.82,East,85,0.0,0.9,63,0.00,,,0.00,meteobridge,2013-08-29 18:30:00,
2013-08-29 11:45:00,71.2,56.1,29.81,ENE,64,2.0,2.0,59,0.00,,,0.00,meteobridge,2013-08-29 18:45:00,
2013-08-29 12:01:00,70.3,55.8,29.82,WSW,248,0.0,0.9,60,0.00,,,0.00,meteobridge,2013-08-29 19:01:00,
2013-08-29 12:16:00,70.2,55.2,29.82,SW,229,0.0,0.0,59,0.00,,,0.00,meteobridge,2013-08-29 19:16:00,
2013-08-29 12:31:00,70.2,55.2,29.82,ESE,102,2.0,2.0,59,0.00,,,0.00,meteobridge,2013-08-29 19:31:00,
2013-08-29 12:46:00,69.3,55.8,29.83,SE,145,0.0,0.9,62,0.00,,,0.00,meteobridge,2013-08-29 19:46:00,
2013-08-29 13:01:00,68.7,56.1,29.85,WSW,241,0.0,0.9,64,0.00,,,0.00,meteobridge,2013-08-29 20:01:00,
2013-08-29 13:16:00,68.4,56.1,29.85,South,191,0.0,2.0,65,0.00,,,0.00,meteobridge,2013-08-29 20:16:00,
2013-08-29 13:31:00,70.0,56.8,29.85,SE,130,2.9,4.9,63,0.00,,,0.00,meteobridge,2013-08-29 20:31:00,
2013-08-29 13:46:00,73.4,59.2,29.85,SW,229,0.0,0.9,61,0.00,,,0.00,meteobridge,2013-08-29 20:46:00,
2013-08-29 14:01:00,74.7,57.4,29.86,ESE,110,0.0,0.9,55,0.00,,,0.00,meteobridge,2013-08-29 21:01:00,
2013-08-29 14:17:00,75.7,57.4,29.87,SSE,159,0.0,0.9,53,0.00,,,0.00,meteobridge,2013-08-29 21:17:00,
2013-08-29 14:32:00,74.7,56.5,29.87,WSW,238,0.9,0.9,53,0.00,,,0.00,meteobridge,2013-08-29 21:32:00,
2013-08-29 14:47:00,74.7,56.8,29.87,East,98,0.0,0.0,54,0.00,,,0.00,meteobridge,2013-08-29 21:47:00,
2013-08-29 15:02:00,76.6,59.2,29.87,SW,226,0.0,0.9,55,0.00,,,0.00,meteobridge,2013-08-29 22:02:00,
2013-08-29 15:17:00,78.6,55.6,29.86,ESE,110,0.0,2.0,45,0.00,,,0.00,meteobridge,2013-08-29 22:17:00,
2013-08-29 15:33:00,79.2,54.1,29.86,SSW,199,0.0,0.0,42,0.00,,,0.00,meteobridge,2013-08-29 22:33:00,
2013-08-29 15:48:00,78.6,56.7,29.86,SW,215,0.0,0.0,47,0.00,,,0.00,meteobridge,2013-08-29 22:48:00,
2013-08-29 16:03:00,81.7,55.8,29.86,East,94,0.0,0.0,41,0.00,,,0.00,meteobridge,2013-08-29 23:03:00,
2013-08-29 16:18:00,83.1,56.3,29.86,SSW,199,0.0,0.9,40,0.00,,,0.00,meteobridge,2013-08-29 23:18:00,
2013-08-29 16:33:00,83.8,54.9,29.87,SW,222,0.0,2.0,37,0.00,,,0.00,meteobridge,2013-08-29 23:33:00,
2013-08-29 16:48:00,84.4,54.5,29.87,WSW,250,0.0,2.0,36,0.00,,,0.00,meteobridge,2013-08-29 23:48:00,
2013-08-29 17:03:00,83.5,49.6,29.86,West,266,0.9,4.0,31,0.00,,,0.00,meteobridge,2013-08-30 00:03:00,
2013-08-29 17:18:00,84.0,50.9,29.87,WSW,250,0.0,6.0,32,0.00,,,0.00,meteobridge,2013-08-30 00:18:00,
2013-08-29 17:33:00,83.7,49.8,29.86,SSW,206,0.0,6.0,31,0.00,,,0.00,meteobridge,2013-08-30 00:33:00,
2013-08-29 17:48:00,82.9,51.6,29.86,NW,307,4.0,4.0,34,0.00,,,0.00,meteobridge,2013-08-30 00:48:00,
2013-08-29 18:03:00,81.5,52.0,29.87,WSW,253,2.9,2.9,36,0.00,,,0.00,meteobridge,2013-08-30 01:03:00,
2013-08-29 18:19:00,81.0,53.6,29.87,WSW,237,0.0,0.9,39,0.00,,,0.00,meteobridge,2013-08-30 01:19:00,
2013-08-29 18:34:00,80.2,53.1,29.87,WSW,250,0.0,6.0,39,0.00,,,0.00,meteobridge,2013-08-30 01:34:00,
2013-08-29 18:49:00,79.7,53.2,29.87,WSW,241,2.0,2.9,40,0.00,,,0.00,meteobridge,2013-08-30 01:49:00,
2013-08-29 19:04:00,78.6,52.9,29.87,SW,235,0.0,0.9,41,0.00,,,0.00,meteobridge,2013-08-30 02:04:00,
2013-08-29 19:20:00,77.4,52.5,29.87,WSW,238,0.0,0.0,42,0.00,,,0.00,meteobridge,2013-08-30 02:20:00,
2013-08-29 19:35:00,75.9,52.5,29.87,SSW,207,0.0,0.0,44,0.00,,,0.00,meteobridge,2013-08-30 02:35:00,
2013-08-29 19:50:00,74.1,52.5,29.88,SSW,207,0.0,0.0,47,0.00,,,0.00,meteobridge,2013-08-30 02:50:00,
2013-08-29 20:05:00,74.1,51.4,29.89,NW,314,0.0,0.0,45,0.00,,,0.00,meteobridge,2013-08-30 03:05:00,
2013-08-29 20:20:00,72.9,52.5,29.90,WSW,247,0.0,0.0,49,0.00,,,0.00,meteobridge,2013-08-30 03:20:00,
2013-08-29 20:35:00,70.9,52.9,29.90,WSW,247,0.0,0.0,53,0.00,,,0.00,meteobridge,2013-08-30 03:35:00,
2013-08-29 20:51:00,70.0,53.1,29.91,WSW,247,0.0,0.0,55,0.00,,,0.00,meteobridge,2013-08-30 03:51:00,
2013-08-29 21:06:00,69.4,51.6,29.91,WSW,247,0.0,0.0,53,0.00,,,0.00,meteobridge,2013-08-30 04:06:00,
2013-08-29 21:21:00,68.5,52.2,29.92,WSW,246,0.0,0.0,56,0.00,,,0.00,meteobridge,2013-08-30 04:21:00,
2013-08-29 21:36:00,67.6,51.4,29.92,SW,234,0.0,0.0,56,0.00,,,0.00,meteobridge,2013-08-30 04:36:00,
2013-08-29 21:51:00,67.1,51.4,29.92,SW,234,0.0,0.0,57,0.00,,,0.00,meteobridge,2013-08-30 04:51:00,
2013-08-29 22:06:00,66.7,51.4,29.93,SW,234,0.0,0.0,58,0.00,,,0.00,meteobridge,2013-08-30 05:06:00,
2013-08-29 22:22:00,65.8,51.1,29.93,SW,234,0.0,0.0,59,0.00,,,0.00,meteobridge,2013-08-30 05:22:00,
2013-08-29 22:37:00,65.3,51.4,29.93,SW,234,0.0,0.0,61,0.00,,,0.00,meteobridge,2013-08-30 05:37:00,
2013-08-29 22:52:00,64.8,51.4,29.94,SW,234,0.0,0.0,62,0.00,,,0.00,meteobridge,2013-08-30 05:52:00,
2013-08-29 23:07:00,64.8,51.4,29.94,SW,234,0.0,0.0,62,0.00,,,0.00,meteobridge,2013-08-30 06:07:00,
2013-08-29 23:22:00,65.1,51.3,29.94,SW,234,0.0,0.0,61,0.00,,,0.00,meteobridge,2013-08-30 06:22:00,
2013-08-29 23:37:00,65.7,51.8,29.94,SW,234,0.0,0.0,61,0.00,,,0.00,meteobridge,2013-08-30 06:37:00,
2013-08-29 23:53:00,65.8,51.6,29.94,SW,234,0.0,0.0,60,0.00,,,0.00,meteobridge,2013-08-30 06:53:00,